TimeCST,TemperatureF,Dew PointF,Humidity,Sea Level PressureIn,VisibilityMPH,Wind Direction,Wind SpeedMPH,Gust SpeedMPH,PrecipitationIn,Events,Conditions,WindDirDegrees,DateUTC
12:54 AM,23.0,8.1,53,30.01,10.0,South,18.4,-,N/A,,Clear,190,2014-01-30 06:54:00
1:54 AM,23.0,8.1,53,29.99,10.0,South,17.3,-,N/A,,Clear,180,2014-01-30 07:54:00
2:54 AM,23.0,9.0,55,29.99,10.0,South,15.0,-,N/A,,Clear,190,2014-01-30 08:54:00
3:54 AM,23.0,9.0,55,29.96,10.0,South,17.3,24.2,N/A,,Clear,180,2014-01-30 09:54:00
4:54 AM,24.1,10.0,55,29.92,10.0,South,20.7,-,N/A,,Clear,190,2014-01-30 10:54:00
5:54 AM,25.0,10.0,53,29.90,10.0,South,19.6,-,N/A,,Clear,180,2014-01-30 11:54:00
6:54 AM,25.0,10.0,53,29.88,10.0,South,20.7,29.9,N/A,,Clear,180,2014-01-30 12:54:00
7:54 AM,26.1,10.0,51,29.86,10.0,South,24.2,36.8,N/A,,Clear,180,2014-01-30 13:54:00
8:54 AM,27.0,10.0,49,29.81,10.0,South,24.2,31.1,N/A,,Partly Cloudy,180,2014-01-30 14:54:00
9:54 AM,28.9,10.0,45,29.80,10.0,South,26.5,-,N/A,,Clear,190,2014-01-30 15:54:00
10:54 AM,32.0,10.9,42,29.76,10.0,South,24.2,33.4,N/A,,Partly Cloudy,190,2014-01-30 16:54:00
11:54 AM,34.0,10.9,38,29.73,10.0,SSW,25.3,35.7,N/A,,Mostly Cloudy,210,2014-01-30 17:54:00
12:54 PM,36.0,10.0,34,29.73,10.0,SW,26.5,32.2,N/A,,Overcast,220,2014-01-30 18:54:00
1:42 PM,34.0,18.0,52,29.72,2.5,WSW,32.2,48.3,0.00,Snow,Light Snow,240,2014-01-30 19:42:00
1:49 PM,33.8,21.2,60,29.73,1.2,WSW,31.1,43.7,0.00,Snow,Light Snow,240,2014-01-30 19:49:00
1:54 PM,32.0,21.9,66,29.75,1.0,WSW,29.9,41.4,0.00,Snow,Light Snow,240,2014-01-30 19:54:00
2:03 PM,32.0,21.9,66,29.74,2.0,WSW,25.3,35.7,0.00,Snow,Light Snow,240,2014-01-30 20:03:00
2:10 PM,30.9,23.0,72,29.74,1.2,WSW,21.9,35.7,0.00,Snow,Light Snow,240,2014-01-30 20:10:00
2:20 PM,30.9,25.0,79,29.74,0.8,WSW,18.4,28.8,0.00,Snow,Light Snow,240,2014-01-30 20:20:00
2:28 PM,30.9,25.0,79,29.75,1.5,WSW,16.1,-,0.00,Snow,Light Snow,240,2014-01-30 20:28:00
2:37 PM,30.9,25.0,79,29.76,2.5,SW,16.1,-,0.00,Snow,Light Snow,230,2014-01-30 20:37:00
2:43 PM,30.9,26.1,82,29.75,1.2,SW,16.1,-,0.00,Snow,Light Snow,220,2014-01-30 20:43:00
2:54 PM,30.9,26.1,82,29.78,0.8,SW,19.6,-,0.01,Snow,Light Snow,220,2014-01-30 20:54:00
3:00 PM,30.9,26.1,82,29.75,1.5,SW,18.4,-,0.00,Snow,Light Snow,220,2014-01-30 21:00:00
3:04 PM,30.9,27.0,85,29.75,3.0,SW,16.1,-,0.00,Snow,Light Snow,220,2014-01-30 21:04:00
3:14 PM,30.9,27.0,85,29.76,1.8,SW,16.1,-,0.00,Snow,Light Snow,220,2014-01-30 21:14:00
3:22 PM,30.9,27.0,85,29.76,3.0,SW,18.4,-,0.00,Snow,Light Snow,220,2014-01-30 21:22:00
3:54 PM,32.0,27.0,82,29.80,10.0,SW,21.9,-,0.00,,Overcast,220,2014-01-30 21:54:00
4:54 PM,32.0,27.0,82,29.81,10.0,SW,16.1,-,N/A,,Overcast,220,2014-01-30 22:54:00
5:54 PM,32.0,27.0,82,29.83,10.0,SW,15.0,-,N/A,,Scattered Clouds,220,2014-01-30 23:54:00
6:54 PM,33.1,27.0,78,29.86,10.0,SW,12.7,-,N/A,,Mostly Cloudy,230,2014-01-31 00:54:00
7:54 PM,34.0,27.0,75,29.88,10.0,WSW,10.4,-,N/A,,Mostly Cloudy,250,2014-01-31 01:54:00
8:54 PM,30.0,21.9,72,29.94,10.0,WNW,11.5,20.7,N/A,,Overcast,300,2014-01-31 02:54:00
9:19 PM,28.0,19.9,72,29.93,9.0,West,8.1,-,N/A,,Scattered Clouds,280,2014-01-31 03:19:00
9:33 PM,27.0,19.9,75,29.94,9.0,WNW,10.4,-,N/A,,Mostly Cloudy,290,2014-01-31 03:33:00
9:54 PM,26.1,19.0,75,29.98,9.0,West,9.2,-,N/A,,Mostly Cloudy,280,2014-01-31 03:54:00
10:43 PM,24.1,17.1,75,29.98,10.0,NW,8.1,-,N/A,,Scattered Clouds,310,2014-01-31 04:43:00
10:54 PM,23.0,16.0,74,30.00,10.0,WNW,9.2,-,N/A,,Clear,300,2014-01-31 04:54:00
11:54 PM,21.0,14.0,74,30.03,10.0,NW,8.1,-,N/A,,Clear,320,2014-01-31 05:54:00